Time,TemperatureF,DewpointF,PressureIn,WindDirection,WindDirectionDegrees,WindSpeedMPH,WindSpeedGustMPH,Humidity,HourlyPrecipIn,Conditions,Clouds,dailyrainin,SoftwareType,DateUTC
2013-03-05 00:02:00,16.2,1.6,30.22,NW,315,6.0,10.0,52,0.00,,,0.00,meteohub,2013-03-05 07:02:00,
2013-03-05 00:07:00,16.2,1.2,30.22,NNW,338,6.0,10.0,51,0.00,,,0.00,meteohub,2013-03-05 07:07:00,
2013-03-05 00:12:00,16.2,1.2,30.23,NW,314,1.0,9.0,51,0.00,,,0.00,meteohub,2013-03-05 07:12:00,
2013-03-05 00:17:00,15.8,0.9,30.24,NW,321,2.0,9.0,51,0.00,,,0.00,meteohub,2013-03-05 07:17:00,
2013-03-05 00:22:00,16.0,1.0,30.24,NNW,329,5.0,9.0,51,0.00,,,0.00,meteohub,2013-03-05 07:22:00,
2013-03-05 00:27:00,16.0,1.4,30.25,NNW,328,3.0,6.0,52,0.00,,,0.00,meteohub,2013-03-05 07:27:00,
2013-03-05 00:32:00,15.8,1.2,30.24,NNW,340,1.0,6.0,52,0.00,,,0.00,meteohub,2013-03-05 07:32:00,
2013-03-05 00:37:00,15.6,1.0,30.24,NNW,328,1.0,6.0,52,0.00,,,0.00,meteohub,2013-03-05 07:37:00,
2013-03-05 00:42:00,15.4,1.0,30.25,West,280,0.0,4.0,52,0.00,,,0.00,meteohub,2013-03-05 07:42:00,
2013-03-05 00:47:00,15.4,0.5,30.25,West,270,1.0,3.0,51,0.00,,,0.00,meteohub,2013-03-05 07:47:00,
2013-03-05 00:52:00,15.6,0.3,30.25,West,280,0.0,2.0,50,0.00,,,0.00,meteohub,2013-03-05 07:52:00,
2013-03-05 00:57:00,15.6,0.7,30.25,NW,326,0.0,3.0,51,0.00,,,0.00,meteohub,2013-03-05 07:57:00,
2013-03-05 01:02:00,15.6,0.3,30.25,NNW,335,2.0,3.0,50,0.00,,,0.00,meteohub,2013-03-05 08:02:00,
2013-03-05 01:07:00,15.4,0.5,30.25,NW,321,6.0,6.0,51,0.00,,,0.00,meteohub,2013-03-05 08:07:00,
2013-03-05 01:12:00,15.4,0.1,30.25,NW,326,8.0,8.0,50,0.00,,,0.00,meteohub,2013-03-05 08:12:00,
2013-03-05 01:17:00,15.4,0.1,30.26,NW,321,10.0,10.0,50,0.00,,,0.00,meteohub,2013-03-05 08:17:00,
2013-03-05 01:22:00,15.1,0.1,30.27,WNW,295,6.0,15.0,51,0.00,,,0.00,meteohub,2013-03-05 08:22:00,
2013-03-05 01:27:00,14.7,0.3,30.27,NW,309,6.0,15.0,52,0.00,,,0.00,meteohub,2013-03-05 08:27:00,
2013-03-05 01:32:00,14.7,0.3,30.27,NW,321,9.0,15.0,52,0.00,,,0.00,meteohub,2013-03-05 08:32:00,
2013-03-05 01:37:00,15.1,0.7,30.27,NW,319,6.0,14.0,52,0.00,,,0.00,meteohub,2013-03-05 08:37:00,
2013-03-05 01:42:00,14.9,0.5,30.27,NW,321,6.0,14.0,52,0.00,,,0.00,meteohub,2013-03-05 08:42:00,
2013-03-05 01:47:00,14.5,0.5,30.28,NNW,328,3.0,14.0,53,0.00,,,0.00,meteohub,2013-03-05 08:47:00,
2013-03-05 01:52:00,14.2,1.0,30.28,NW,318,5.0,10.0,55,0.00,,,0.00,meteohub,2013-03-05 08:52:00,
2013-03-05 01:57:00,13.8,1.0,30.28,WNW,302,4.0,9.0,56,0.00,,,0.00,meteohub,2013-03-05 08:57:00,
2013-03-05 02:02:00,13.6,0.9,30.28,NNW,335,7.0,8.0,56,0.00,,,0.00,meteohub,2013-03-05 09:02:00,
2013-03-05 02:07:00,13.8,-0.2,30.28,NW,305,6.0,12.0,53,0.00,,,0.00,meteohub,2013-03-05 09:07:00,
2013-03-05 02:12:00,13.6,-0.4,30.28,NW,317,3.0,12.0,53,0.00,,,0.00,meteohub,2013-03-05 09:12:00,
2013-03-05 02:17:00,13.6,-0.4,30.29,NNW,328,3.0,12.0,53,0.00,,,0.00,meteohub,2013-03-05 09:17:00,
2013-03-05 02:22:00,13.6,-0.4,30.28,NW,311,3.0,9.0,53,0.00,,,0.00,meteohub,2013-03-05 09:22:00,
2013-03-05 02:27:00,13.5,-0.4,30.28,NW,316,2.0,7.0,53,0.00,,,0.00,meteohub,2013-03-05 09:27:00,
2013-03-05 02:32:00,13.1,-0.8,30.28,NW,316,4.0,5.0,53,0.00,,,0.00,meteohub,2013-03-05 09:32:00,
2013-03-05 02:37:00,13.1,-0.8,30.28,NNW,331,3.0,5.0,53,0.00,,,0.00,meteohub,2013-03-05 09:37:00,
2013-03-05 02:42:00,13.3,-1.1,30.27,NW,304,2.0,5.0,52,0.00,,,0.00,meteohub,2013-03-05 09:42:00,
2013-03-05 02:47:00,13.3,-1.1,30.28,NW,314,4.0,5.0,52,0.00,,,0.00,meteohub,2013-03-05 09:47:00,
2013-03-05 02:52:00,13.1,-1.3,30.27,NNW,328,4.0,6.0,52,0.00,,,0.00,meteohub,2013-03-05 09:52:00,
2013-03-05 02:57:00,13.3,-1.5,30.27,NNW,328,8.0,8.0,51,0.00,,,0.00,meteohub,2013-03-05 09:57:00,
2013-03-05 03:02:00,13.6,-1.5,30.27,NW,321,7.0,12.0,50,0.00,,,0.00,meteohub,2013-03-05 10:02:00,
2013-03-05 03:07:00,13.5,-1.7,30.27,NNW,328,7.0,12.0,50,0.00,,,0.00,meteohub,2013-03-05 10:07:00,
2013-03-05 03:12:00,13.3,-1.5,30.28,NNW,330,5.0,12.0,51,0.00,,,0.00,meteohub,2013-03-05 10:12:00,
2013-03-05 03:17:00,13.3,-1.5,30.28,NW,317,3.0,10.0,51,0.00,,,0.00,meteohub,2013-03-05 10:17:00,
2013-03-05 03:22:00,12.9,-1.8,30.28,NNW,328,7.0,9.0,51,0.00,,,0.00,meteohub,2013-03-05 10:22:00,
2013-03-05 03:27:00,13.1,-1.7,30.29,NW,326,7.0,9.0,51,0.00,,,0.00,meteohub,2013-03-05 10:27:00,
2013-03-05 03:32:00,13.5,-1.7,30.29,NNW,328,8.0,10.0,50,0.00,,,0.00,meteohub,2013-03-05 10:32:00,
2013-03-05 03:37:00,13.5,-2.2,30.29,NW,323,7.0,11.0,49,0.00,,,0.00,meteohub,2013-03-05 10:37:00,
2013-03-05 03:42:00,13.3,-2.4,30.29,NNW,328,8.0,11.0,49,0.00,,,0.00,meteohub,2013-03-05 10:42:00,
2013-03-05 03:47:00,13.5,-2.2,30.29,NNW,328,7.0,11.0,49,0.00,,,0.00,meteohub,2013-03-05 10:47:00,
2013-03-05 03:52:00,13.3,-2.4,30.30,NW,316,6.0,10.0,49,0.00,,,0.00,meteohub,2013-03-05 10:52:00,
2013-03-05 03:57:00,12.9,-2.2,30.30,NNW,328,10.0,12.0,50,0.00,,,0.00,meteohub,2013-03-05 10:57:00,
2013-03-05 04:02:00,12.7,-2.0,30.30,NNW,332,7.0,12.0,51,0.00,,,0.00,meteohub,2013-03-05 11:02:00,
2013-03-05 04:07:00,12.6,-2.2,30.30,NW,321,7.0,11.0,51,0.00,,,0.00,meteohub,2013-03-05 11:07:00,
2013-03-05 04:12:00,12.7,-2.0,30.30,NNW,328,7.0,11.0,51,0.00,,,0.00,meteohub,2013-03-05 11:12:00,
2013-03-05 04:17:00,12.7,-2.0,30.31,WNW,296,4.0,11.0,51,0.00,,,0.00,meteohub,2013-03-05 11:17:00,
2013-03-05 04:22:00,12.6,-2.6,30.31,NW,309,3.0,11.0,50,0.00,,,0.00,meteohub,2013-03-05 11:22:00,
2013-03-05 04:27:00,12.7,-2.7,30.31,WNW,298,4.0,9.0,49,0.00,,,0.00,meteohub,2013-03-05 11:27:00,
2013-03-05 04:32:00,12.9,-3.1,30.31,NW,308,4.0,7.0,48,0.00,,,0.00,meteohub,2013-03-05 11:32:00,
2013-03-05 04:37:00,13.3,-3.1,30.32,WNW,296,4.0,7.0,47,0.00,,,0.00,meteohub,2013-03-05 11:37:00,
2013-03-05 04:42:00,12.9,-3.1,30.32,NW,321,3.0,7.0,48,0.00,,,0.00,meteohub,2013-03-05 11:42:00,
2013-03-05 04:47:00,12.9,-3.1,30.32,NW,307,3.0,9.0,48,0.00,,,0.00,meteohub,2013-03-05 11:47:00,
2013-03-05 04:52:00,13.5,-3.5,30.33,NW,321,3.0,9.0,46,0.00,,,0.00,meteohub,2013-03-05 11:52:00,
2013-03-05 04:57:00,13.3,-3.6,30.33,NNW,339,5.0,9.0,46,0.00,,,0.00,meteohub,2013-03-05 11:57:00,
2013-03-05 05:02:00,13.3,-4.2,30.34,NW,326,6.0,8.0,45,0.00,,,0.00,meteohub,2013-03-05 12:02:00,
2013-03-05 05:07:00,13.6,-3.8,30.34,NW,317,11.0,11.0,45,0.00,,,0.00,meteohub,2013-03-05 12:07:00,
2013-03-05 05:12:00,14.2,-3.8,30.35,NNW,328,7.0,12.0,44,0.00,,,0.00,meteohub,2013-03-05 12:12:00,
2013-03-05 05:17:00,14.2,-4.2,30.35,NNW,330,8.0,12.0,43,0.00,,,0.00,meteohub,2013-03-05 12:17:00,
2013-03-05 05:22:00,14.0,-4.4,30.35,NW,323,8.0,12.0,43,0.00,,,0.00,meteohub,2013-03-05 12:22:00,
2013-03-05 05:27:00,14.0,-4.4,30.35,NNW,335,3.0,10.0,43,0.00,,,0.00,meteohub,2013-03-05 12:27:00,
2013-03-05 05:32:00,14.2,-4.7,30.36,NNW,330,4.0,10.0,42,0.00,,,0.00,meteohub,2013-03-05 12:32:00,
2013-03-05 05:37:00,14.2,-5.3,30.36,NW,323,6.0,10.0,41,0.00,,,0.00,meteohub,2013-03-05 12:37:00,
2013-03-05 05:42:00,14.2,-5.3,30.36,NW,321,4.0,10.0,41,0.00,,,0.00,meteohub,2013-03-05 12:42:00,
2013-03-05 05:47:00,13.8,-5.6,30.36,NNW,333,4.0,10.0,41,0.00,,,0.00,meteohub,2013-03-05 12:47:00,
2013-03-05 05:52:00,13.6,-5.6,30.37,NW,322,4.0,8.0,41,0.00,,,0.00,meteohub,2013-03-05 12:52:00,
2013-03-05 05:57:00,14.0,-6.3,30.37,NW,309,4.0,7.0,39,0.00,,,0.00,meteohub,2013-03-05 12:57:00,
2013-03-05 06:02:00,13.8,-6.5,30.38,NW,307,4.0,7.0,39,0.00,,,0.00,meteohub,2013-03-05 13:02:00,
2013-03-05 06:07:00,14.2,-6.2,30.38,WNW,298,3.0,6.0,39,0.00,,,0.00,meteohub,2013-03-05 13:07:00,
2013-03-05 06:12:00,14.2,-6.7,30.38,NW,321,2.0,6.0,38,0.00,,,0.00,meteohub,2013-03-05 13:12:00,
2013-03-05 06:17:00,14.2,-6.7,30.38,WNW,296,2.0,6.0,38,0.00,,,0.00,meteohub,2013-03-05 13:17:00,
2013-03-05 06:22:00,14.2,-6.7,30.38,NW,322,5.0,5.0,38,0.00,,,0.00,meteohub,2013-03-05 13:22:00,
2013-03-05 06:27:00,14.0,-6.9,30.39,NW,326,5.0,6.0,38,0.00,,,0.00,meteohub,2013-03-05 13:27:00,
2013-03-05 06:32:00,13.8,-6.5,30.39,NW,321,6.0,7.0,39,0.00,,,0.00,meteohub,2013-03-05 13:32:00,
2013-03-05 06:37:00,13.8,-6.5,30.40,NNW,333,5.0,7.0,39,0.00,,,0.00,meteohub,2013-03-05 13:37:00,
2013-03-05 06:42:00,14.0,-6.9,30.40,NW,323,4.0,7.0,38,0.00,,,0.00,meteohub,2013-03-05 13:42:00,
2013-03-05 06:47:00,13.8,-6.5,30.40,NW,321,4.0,7.0,39,0.00,,,0.00,meteohub,2013-03-05 13:47:00,
2013-03-05 06:52:00,14.2,-6.2,30.41,NNW,332,3.0,7.0,39,0.00,,,0.00,meteohub,2013-03-05 13:52:00,
2013-03-05 06:57:00,14.4,-6.2,30.41,NW,321,5.0,6.0,39,0.00,,,0.00,meteohub,2013-03-05 13:57:00,
2013-03-05 07:02:00,14.4,-6.2,30.42,NNW,328,3.0,7.0,39,0.00,,,0.00,meteohub,2013-03-05 14:02:00,
2013-03-05 07:07:00,14.2,-5.8,30.41,NW,326,5.0,7.0,40,0.00,,,0.00,meteohub,2013-03-05 14:07:00,
2013-03-05 07:12:00,14.2,-5.3,30.42,NNW,330,3.0,7.0,41,0.00,,,0.00,meteohub,2013-03-05 14:12:00,
2013-03-05 07:17:00,14.2,-5.3,30.42,NNW,330,5.0,6.0,41,0.00,,,0.00,meteohub,2013-03-05 14:17:00,
2013-03-05 07:22:00,14.2,-5.3,30.42,NW,317,4.0,6.0,41,0.00,,,0.00,meteohub,2013-03-05 14:22:00,
2013-03-05 07:27:00,14.4,-4.5,30.42,NW,322,3.0,6.0,42,0.00,,,0.00,meteohub,2013-03-05 14:27:00,
2013-03-05 07:32:00,14.5,-4.9,30.42,NW,325,4.0,6.0,41,0.00,,,0.00,meteohub,2013-03-05 14:32:00,
2013-03-05 07:37:00,15.3,-4.7,30.43,NW,312,5.0,6.0,40,0.00,,,0.00,meteohub,2013-03-05 14:37:00,
2013-03-05 07:42:00,15.6,-3.8,30.43,NNW,338,8.0,8.0,41,0.00,,,0.00,meteohub,2013-03-05 14:42:00,
2013-03-05 07:47:00,16.2,-3.5,30.43,NW,319,4.0,8.0,41,0.00,,,0.00,meteohub,2013-03-05 14:47:00,
2013-03-05 07:52:00,16.3,-3.8,30.43,NNW,328,5.0,8.0,40,0.00,,,0.00,meteohub,2013-03-05 14:52:00,
2013-03-05 07:57:00,16.9,-3.3,30.43,NNW,328,6.0,10.0,40,0.00,,,0.00,meteohub,2013-03-05 14:57:00,
2013-03-05 08:02:00,17.4,-3.3,30.43,NW,321,11.0,11.0,39,0.00,,,0.00,meteohub,2013-03-05 15:02:00,
2013-03-05 08:07:00,17.6,-3.6,30.43,NNW,340,6.0,11.0,38,0.00,,,0.00,meteohub,2013-03-05 15:07:00,
2013-03-05 08:12:00,18.0,-3.5,30.44,NW,319,4.0,12.0,38,0.00,,,0.00,meteohub,2013-03-05 15:12:00,
2013-03-05 08:17:00,18.3,-3.6,30.44,NNE,14,6.0,12.0,37,0.00,,,0.00,meteohub,2013-03-05 15:17:00,
2013-03-05 08:22:00,18.9,-2.6,30.44,NNW,328,7.0,12.0,38,0.00,,,0.00,meteohub,2013-03-05 15:22:00,
2013-03-05 08:27:00,19.2,-3.5,30.45,NNW,330,6.0,10.0,36,0.00,,,0.00,meteohub,2013-03-05 15:27:00,
2013-03-05 08:32:00,19.8,-4.0,30.44,NNW,329,6.0,10.0,34,0.00,,,0.00,meteohub,2013-03-05 15:32:00,
2013-03-05 08:37:00,20.1,-5.1,30.45,WNW,295,1.0,9.0,32,0.00,,,0.00,meteohub,2013-03-05 15:37:00,
2013-03-05 08:42:00,21.0,-2.9,30.45,NNW,335,3.0,8.0,34,0.00,,,0.00,meteohub,2013-03-05 15:42:00,
2013-03-05 08:47:00,21.6,-2.6,30.45,NNW,330,2.0,8.0,34,0.00,,,0.00,meteohub,2013-03-05 15:47:00,
2013-03-05 08:52:00,22.1,-2.0,30.45,NNW,331,3.0,6.0,34,0.00,,,0.00,meteohub,2013-03-05 15:52:00,
2013-03-05 08:57:00,22.6,-4.9,30.45,NNW,344,6.0,7.0,29,0.00,,,0.00,meteohub,2013-03-05 15:57:00,
2013-03-05 09:02:00,23.2,-5.8,30.45,NNW,330,6.0,8.0,27,0.00,,,0.00,meteohub,2013-03-05 16:02:00,
2013-03-05 09:07:00,23.7,-4.7,30.45,NNW,329,5.0,9.0,28,0.00,,,0.00,meteohub,2013-03-05 16:07:00,
2013-03-05 09:12:00,24.1,-7.4,30.45,NNW,334,4.0,10.0,24,0.00,,,0.00,meteohub,2013-03-05 16:12:00,
2013-03-05 09:17:00,25.0,-2.7,30.45,NW,326,5.0,10.0,29,0.00,,,0.00,meteohub,2013-03-05 16:17:00,
2013-03-05 09:22:00,25.3,-5.6,30.45,NNW,333,7.0,10.0,25,0.00,,,0.00,meteohub,2013-03-05 16:22:00,
2013-03-05 09:27:00,25.9,-5.1,30.45,NNE,19,7.0,9.0,25,0.00,,,0.00,meteohub,2013-03-05 16:27:00,
2013-03-05 09:32:00,26.2,-7.4,30.45,NNE,16,4.0,9.0,22,0.00,,,0.00,meteohub,2013-03-05 16:32:00,
2013-03-05 09:37:00,26.8,-5.3,30.45,NW,309,4.0,9.0,24,0.00,,,0.00,meteohub,2013-03-05 16:37:00,
2013-03-05 09:42:00,27.3,-5.6,30.45,NNW,333,4.0,9.0,23,0.00,,,0.00,meteohub,2013-03-05 16:42:00,
2013-03-05 09:47:00,28.0,-6.0,30.45,NW,325,3.0,9.0,22,0.00,,,0.00,meteohub,2013-03-05 16:47:00,
2013-03-05 09:52:00,28.2,-4.9,30.45,North,11,2.0,9.0,23,0.00,,,0.00,meteohub,2013-03-05 16:52:00,
2013-03-05 09:57:00,28.9,-3.3,30.45,NNE,23,1.0,8.0,24,0.00,,,0.00,meteohub,2013-03-05 16:57:00,
2013-03-05 10:02:00,29.1,-4.0,30.45,NW,322,5.0,9.0,23,0.00,,,0.00,meteohub,2013-03-05 17:02:00,
2013-03-05 10:07:00,29.7,-4.5,30.45,NNW,335,4.0,9.0,22,0.00,,,0.00,meteohub,2013-03-05 17:07:00,
2013-03-05 10:12:00,29.7,-6.5,30.45,NNW,338,4.0,7.0,20,0.00,,,0.00,meteohub,2013-03-05 17:12:00,
2013-03-05 10:17:00,30.4,-4.0,30.44,NNE,16,6.0,9.0,22,0.00,,,0.00,meteohub,2013-03-05 17:17:00,
2013-03-05 10:22:00,30.9,-4.5,30.44,NNE,28,3.0,9.0,21,0.00,,,0.00,meteohub,2013-03-05 17:22:00,
2013-03-05 10:27:00,31.3,-4.2,30.45,NNE,25,4.0,9.0,21,0.00,,,0.00,meteohub,2013-03-05 17:27:00,
2013-03-05 10:32:00,31.8,-5.8,30.44,NNE,18,4.0,8.0,19,0.00,,,0.00,meteohub,2013-03-05 17:32:00,
2013-03-05 10:37:00,32.4,-4.2,30.44,NNW,328,2.0,8.0,20,0.00,,,0.00,meteohub,2013-03-05 17:37:00,
2013-03-05 10:42:00,32.7,-5.1,30.44,NNW,328,2.0,7.0,19,0.00,,,0.00,meteohub,2013-03-05 17:42:00,
2013-03-05 10:47:00,33.3,-8.1,30.43,NW,319,5.0,7.0,16,0.00,,,0.00,meteohub,2013-03-05 17:47:00,
2013-03-05 10:52:00,33.4,-3.3,30.43,North,8,0.0,7.0,20,0.00,,,0.00,meteohub,2013-03-05 17:52:00,
2013-03-05 10:57:00,34.5,-4.7,30.43,NW,310,2.0,7.0,18,0.00,,,0.00,meteohub,2013-03-05 17:57:00,
2013-03-05 11:02:00,34.5,-5.8,30.43,WNW,302,2.0,7.0,17,0.00,,,0.00,meteohub,2013-03-05 18:02:00,
2013-03-05 11:07:00,35.2,-0.8,30.43,WNW,293,1.0,6.0,21,0.00,,,0.00,meteohub,2013-03-05 18:07:00,
2013-03-05 11:12:00,36.0,-6.0,30.42,WNW,293,2.0,6.0,16,0.00,,,0.00,meteohub,2013-03-05 18:12:00,
2013-03-05 11:17:00,35.8,-4.7,30.42,NNW,328,3.0,5.0,17,0.00,,,0.00,meteohub,2013-03-05 18:17:00,
2013-03-05 11:22:00,36.3,-3.1,30.42,East,84,1.0,5.0,18,0.00,,,0.00,meteohub,2013-03-05 18:22:00,
2013-03-05 11:27:00,36.7,-5.3,30.42,East,85,2.0,5.0,16,0.00,,,0.00,meteohub,2013-03-05 18:27:00,
2013-03-05 11:32:00,37.4,-2.2,30.41,ESE,110,1.0,6.0,18,0.00,,,0.00,meteohub,2013-03-05 18:32:00,
2013-03-05 11:37:00,38.5,-3.8,30.41,SSE,148,3.0,6.0,16,0.00,,,0.00,meteohub,2013-03-05 18:37:00,
2013-03-05 11:42:00,39.6,-4.4,30.40,SSE,167,7.0,7.0,15,0.00,,,0.00,meteohub,2013-03-05 18:42:00,
2013-03-05 11:47:00,40.5,-2.2,30.41,ESE,122,0.0,7.0,16,0.00,,,0.00,meteohub,2013-03-05 18:47:00,
2013-03-05 11:52:00,41.0,-4.5,30.41,ESE,111,5.0,7.0,14,0.00,,,0.00,meteohub,2013-03-05 18:52:00,
2013-03-05 11:57:00,40.8,-3.3,30.40,ESE,114,7.0,10.0,15,0.00,,,0.00,meteohub,2013-03-05 18:57:00,
2013-03-05 12:02:00,40.6,-3.5,30.40,SW,215,5.0,10.0,15,0.00,,,0.00,meteohub,2013-03-05 19:02:00,
2013-03-05 12:07:00,41.5,-2.7,30.39,SSE,155,8.0,10.0,15,0.00,,,0.00,meteohub,2013-03-05 19:07:00,
2013-03-05 12:13:00,41.7,-4.0,30.39,SSW,208,6.0,12.0,14,0.00,,,0.00,meteohub,2013-03-05 19:13:00,
2013-03-05 12:18:00,42.3,-3.6,30.39,NNE,31,5.0,12.0,14,0.00,,,0.00,meteohub,2013-03-05 19:18:00,
2013-03-05 12:24:00,42.4,-4.9,30.38,SE,132,6.0,12.0,13,0.00,,,0.00,meteohub,2013-03-05 19:24:00,
2013-03-05 12:29:00,43.0,-4.5,30.38,East,94,2.0,10.0,13,0.00,,,0.00,meteohub,2013-03-05 19:29:00,
2013-03-05 12:35:00,43.0,-4.5,30.38,SSE,160,6.0,10.0,13,0.00,,,0.00,meteohub,2013-03-05 19:35:00,
2013-03-05 12:40:00,43.7,-2.4,30.37,ENE,75,6.0,9.0,14,0.00,,,0.00,meteohub,2013-03-05 19:40:00,
2013-03-05 12:46:00,44.4,-1.8,30.36,ESE,113,7.0,11.0,14,0.00,,,0.00,meteohub,2013-03-05 19:46:00,
2013-03-05 12:51:00,45.3,-2.7,30.36,NNE,16,3.0,11.0,13,0.00,,,0.00,meteohub,2013-03-05 19:51:00,
2013-03-05 12:57:00,45.7,-4.0,30.36,ESE,120,9.0,13.0,12,0.00,,,0.00,meteohub,2013-03-05 19:57:00,
2013-03-05 13:02:00,46.0,-2.0,30.36,SE,143,12.0,15.0,13,0.00,,,0.00,meteohub,2013-03-05 20:02:00,
2013-03-05 13:07:00,45.7,-5.8,30.35,SE,132,5.0,15.0,11,0.00,,,0.00,meteohub,2013-03-05 20:07:00,
2013-03-05 13:12:00,45.5,-2.6,30.35,ENE,74,8.0,15.0,13,0.00,,,0.00,meteohub,2013-03-05 20:12:00,
2013-03-05 13:17:00,45.7,-4.0,30.35,SE,124,8.0,15.0,12,0.00,,,0.00,meteohub,2013-03-05 20:17:00,
2013-03-05 13:22:00,46.2,-2.0,30.35,SE,128,2.0,12.0,13,0.00,,,0.00,meteohub,2013-03-05 20:22:00,
2013-03-05 13:27:00,46.9,-3.1,30.35,SSE,158,4.0,13.0,12,0.00,,,0.00,meteohub,2013-03-05 20:27:00,
2013-03-05 13:32:00,46.8,-3.3,30.35,SE,125,12.0,13.0,12,0.00,,,0.00,meteohub,2013-03-05 20:32:00,
2013-03-05 13:37:00,46.8,-5.1,30.34,ESE,120,9.0,13.0,11,0.00,,,0.00,meteohub,2013-03-05 20:37:00,
2013-03-05 13:43:00,47.3,-4.5,30.34,SE,134,7.0,13.0,11,0.00,,,0.00,meteohub,2013-03-05 20:43:00,
2013-03-05 13:48:00,46.9,-4.9,30.34,South,181,6.0,13.0,11,0.00,,,0.00,meteohub,2013-03-05 20:48:00,
2013-03-05 13:54:00,46.8,-5.1,30.33,ESE,108,4.0,13.0,11,0.00,,,0.00,meteohub,2013-03-05 20:54:00,
2013-03-05 13:59:00,47.8,-4.2,30.34,SE,127,12.0,13.0,11,0.00,,,0.00,meteohub,2013-03-05 20:59:00,
2013-03-05 14:05:00,47.5,-4.5,30.33,ESE,103,10.0,14.0,11,0.00,,,0.00,meteohub,2013-03-05 21:05:00,
2013-03-05 14:10:00,47.3,-4.5,30.33,ENE,70,4.0,17.0,11,0.00,,,0.00,meteohub,2013-03-05 21:10:00,
2013-03-05 14:16:00,47.7,-4.4,30.34,SE,146,11.0,17.0,11,0.00,,,0.00,meteohub,2013-03-05 21:16:00,
2013-03-05 14:21:00,47.5,-4.5,30.33,ESE,117,5.0,15.0,11,0.00,,,0.00,meteohub,2013-03-05 21:21:00,
2013-03-05 14:27:00,47.8,-4.2,30.34,SE,143,6.0,15.0,11,0.00,,,0.00,meteohub,2013-03-05 21:27:00,
2013-03-05 14:32:00,48.0,-4.0,30.33,SE,124,8.0,15.0,11,0.00,,,0.00,meteohub,2013-03-05 21:32:00,
2013-03-05 14:37:00,48.4,-1.8,30.33,SSE,166,14.0,14.0,12,0.00,,,0.00,meteohub,2013-03-05 21:37:00,
2013-03-05 14:42:00,49.1,-3.3,30.33,SSE,150,8.0,14.0,11,0.00,,,0.00,meteohub,2013-03-05 21:42:00,
2013-03-05 14:47:00,48.9,-1.5,30.33,SSW,193,8.0,15.0,12,0.00,,,0.00,meteohub,2013-03-05 21:47:00,
2013-03-05 14:52:00,49.3,-3.1,30.33,ESE,111,2.0,15.0,11,0.00,,,0.00,meteohub,2013-03-05 21:52:00,
2013-03-05 14:57:00,49.3,-3.1,30.32,SE,139,13.0,17.0,11,0.00,,,0.00,meteohub,2013-03-05 21:57:00,
2013-03-05 15:02:00,49.3,-3.1,30.33,ESE,114,4.0,17.0,11,0.00,,,0.00,meteohub,2013-03-05 22:02:00,
2013-03-05 15:07:00,49.5,-2.9,30.33,West,270,4.0,17.0,11,0.00,,,0.00,meteohub,2013-03-05 22:07:00,
2013-03-05 15:12:00,49.3,-3.1,30.32,South,169,4.0,17.0,11,0.00,,,0.00,meteohub,2013-03-05 22:12:00,
2013-03-05 15:17:00,49.3,-5.1,30.33,ESE,106,2.0,17.0,10,0.00,,,0.00,meteohub,2013-03-05 22:17:00,
2013-03-05 15:22:00,49.6,-0.9,30.32,NE,54,4.0,17.0,12,0.00,,,0.00,meteohub,2013-03-05 22:22:00,
2013-03-05 15:27:00,49.8,-2.6,30.32,SE,139,10.0,16.0,11,0.00,,,0.00,meteohub,2013-03-05 22:27:00,
2013-03-05 15:32:00,49.5,-2.9,30.32,SSE,156,13.0,16.0,11,0.00,,,0.00,meteohub,2013-03-05 22:32:00,
2013-03-05 15:37:00,48.9,-3.3,30.32,SE,137,8.0,15.0,11,0.00,,,0.00,meteohub,2013-03-05 22:37:00,
2013-03-05 15:42:00,48.9,-3.3,30.31,ESE,122,11.0,16.0,11,0.00,,,0.00,meteohub,2013-03-05 22:42:00,
2013-03-05 15:47:00,48.9,-5.3,30.31,East,96,14.0,16.0,10,0.00,,,0.00,meteohub,2013-03-05 22:47:00,
2013-03-05 15:52:00,48.9,-5.3,30.30,SE,129,17.0,18.0,10,0.00,,,0.00,meteohub,2013-03-05 22:52:00,
2013-03-05 15:57:00,48.9,-5.3,30.31,SW,233,14.0,23.0,10,0.00,,,0.00,meteohub,2013-03-05 22:57:00,
2013-03-05 16:02:00,49.3,-7.2,30.31,SW,226,1.0,23.0,9,0.00,,,0.00,meteohub,2013-03-05 23:02:00,
2013-03-05 16:07:00,49.5,-9.4,30.30,SSE,153,6.0,23.0,8,0.00,,,0.00,meteohub,2013-03-05 23:07:00,
2013-03-05 16:12:00,49.6,-6.9,30.30,ESE,106,2.0,16.0,9,0.00,,,0.00,meteohub,2013-03-05 23:12:00,
2013-03-05 16:17:00,50.2,-4.4,30.31,ESE,116,5.0,8.0,10,0.00,,,0.00,meteohub,2013-03-05 23:17:00,
2013-03-05 16:22:00,49.8,-9.2,30.30,WNW,289,0.0,8.0,8,0.00,,,0.00,meteohub,2013-03-05 23:22:00,
2013-03-05 16:27:00,49.8,-11.9,30.31,SW,226,1.0,8.0,7,0.00,,,0.00,meteohub,2013-03-05 23:27:00,
2013-03-05 16:32:00,49.8,-9.2,30.31,SSW,210,1.0,13.0,8,0.00,,,0.00,meteohub,2013-03-05 23:32:00,
2013-03-05 16:37:00,50.5,-11.4,30.31,SW,229,1.0,13.0,7,0.00,,,0.00,meteohub,2013-03-05 23:37:00,
2013-03-05 16:42:00,50.4,-8.9,30.30,SE,126,8.0,13.0,8,0.00,,,0.00,meteohub,2013-03-05 23:42:00,
2013-03-05 16:47:00,49.1,-5.3,30.31,SE,135,9.0,12.0,10,0.00,,,0.00,meteohub,2013-03-05 23:47:00,
2013-03-05 16:52:00,48.7,-7.6,30.31,SW,229,3.0,14.0,9,0.00,,,0.00,meteohub,2013-03-05 23:52:00,
2013-03-05 16:57:00,48.9,-7.4,30.31,SSE,167,6.0,14.0,9,0.00,,,0.00,meteohub,2013-03-05 23:57:00,
2013-03-05 17:02:00,47.8,-4.2,30.31,South,184,8.0,14.0,11,0.00,,,0.00,meteohub,2013-03-06 00:02:00,
2013-03-05 17:07:00,47.1,-6.7,30.31,SSW,210,5.0,13.0,10,0.00,,,0.00,meteohub,2013-03-06 00:07:00,
2013-03-05 17:12:00,46.6,-5.1,30.31,SW,218,9.0,13.0,11,0.00,,,0.00,meteohub,2013-03-06 00:12:00,
2013-03-05 17:17:00,46.0,-5.6,30.31,South,174,6.0,12.0,11,0.00,,,0.00,meteohub,2013-03-06 00:17:00,
2013-03-05 17:22:00,44.8,-4.7,30.31,South,174,14.0,14.0,12,0.00,,,0.00,meteohub,2013-03-06 00:22:00,
2013-03-05 17:27:00,43.3,-4.2,30.31,SW,228,9.0,14.0,13,0.00,,,0.00,meteohub,2013-03-06 00:27:00,
2013-03-05 17:32:00,42.3,-3.6,30.31,NW,312,3.0,14.0,14,0.00,,,0.00,meteohub,2013-03-06 00:32:00,
2013-03-05 17:37:00,41.5,-2.7,30.31,SSW,197,6.0,14.0,15,0.00,,,0.00,meteohub,2013-03-06 00:37:00,
2013-03-05 17:42:00,40.5,-0.9,30.31,South,170,9.0,13.0,17,0.00,,,0.00,meteohub,2013-03-06 00:42:00,
2013-03-05 17:47:00,39.9,-0.2,30.30,SW,215,8.0,16.0,18,0.00,,,0.00,meteohub,2013-03-06 00:47:00,
2013-03-05 17:52:00,39.4,1.6,30.30,South,184,9.0,18.0,20,0.00,,,0.00,meteohub,2013-03-06 00:52:00,
2013-03-05 17:57:00,38.8,1.2,30.31,South,186,6.0,18.0,20,0.00,,,0.00,meteohub,2013-03-06 00:57:00,
2013-03-05 18:02:00,38.3,1.8,30.31,South,172,5.0,16.0,21,0.00,,,0.00,meteohub,2013-03-06 01:02:00,
2013-03-05 18:07:00,37.6,2.1,30.31,SSW,195,6.0,12.0,22,0.00,,,0.00,meteohub,2013-03-06 01:07:00,
2013-03-05 18:12:00,37.0,2.7,30.31,SSE,161,9.0,11.0,23,0.00,,,0.00,meteohub,2013-03-06 01:12:00,
2013-03-05 18:17:00,36.7,3.2,30.31,South,177,7.0,13.0,24,0.00,,,0.00,meteohub,2013-03-06 01:17:00,
2013-03-05 18:22:00,36.1,3.7,30.31,SSW,204,4.0,13.0,25,0.00,,,0.00,meteohub,2013-03-06 01:22:00,
2013-03-05 18:27:00,35.6,4.1,30.31,South,174,8.0,13.0,26,0.00,,,0.00,meteohub,2013-03-06 01:27:00,
2013-03-05 18:32:00,35.2,4.6,30.31,SSE,159,10.0,15.0,27,0.00,,,0.00,meteohub,2013-03-06 01:32:00,
2013-03-05 18:37:00,34.9,5.0,30.31,SSE,161,7.0,15.0,28,0.00,,,0.00,meteohub,2013-03-06 01:37:00,
2013-03-05 18:42:00,34.5,4.8,30.31,SSE,166,11.0,15.0,28,0.00,,,0.00,meteohub,2013-03-06 01:42:00,
2013-03-05 18:47:00,34.5,5.5,30.31,SSW,200,6.0,13.0,29,0.00,,,0.00,meteohub,2013-03-06 01:47:00,
2013-03-05 18:52:00,34.9,5.9,30.31,SSE,159,9.0,13.0,29,0.00,,,0.00,meteohub,2013-03-06 01:52:00,
2013-03-05 18:57:00,34.9,5.9,30.31,East,101,7.0,13.0,29,0.00,,,0.00,meteohub,2013-03-06 01:57:00,
2013-03-05 19:02:00,35.1,4.5,30.31,South,169,6.0,12.0,27,0.00,,,0.00,meteohub,2013-03-06 02:02:00,
2013-03-05 19:07:00,35.2,5.4,30.31,SSW,210,3.0,13.0,28,0.00,,,0.00,meteohub,2013-03-06 02:07:00,
2013-03-05 19:12:00,35.2,4.6,30.31,South,172,8.0,13.0,27,0.00,,,0.00,meteohub,2013-03-06 02:12:00,
2013-03-05 19:17:00,35.2,4.6,30.31,ESE,121,8.0,14.0,27,0.00,,,0.00,meteohub,2013-03-06 02:17:00,
2013-03-05 19:22:00,34.9,5.0,30.31,SSW,195,5.0,14.0,28,0.00,,,0.00,meteohub,2013-03-06 02:22:00,
2013-03-05 19:27:00,34.3,4.6,30.30,South,169,9.0,14.0,28,0.00,,,0.00,meteohub,2013-03-06 02:27:00,
2013-03-05 19:32:00,34.0,5.0,30.30,South,186,10.0,15.0,29,0.00,,,0.00,meteohub,2013-03-06 02:32:00,
2013-03-05 19:37:00,33.4,5.4,30.30,SW,221,8.0,15.0,30,0.00,,,0.00,meteohub,2013-03-06 02:37:00,
2013-03-05 19:42:00,33.3,5.2,30.30,SSE,153,10.0,13.0,30,0.00,,,0.00,meteohub,2013-03-06 02:42:00,
2013-03-05 19:47:00,33.4,4.6,30.30,South,186,5.0,14.0,29,0.00,,,0.00,meteohub,2013-03-06 02:47:00,
2013-03-05 19:52:00,33.4,3.7,30.30,SE,146,8.0,16.0,28,0.00,,,0.00,meteohub,2013-03-06 02:52:00,
2013-03-05 19:57:00,33.6,2.3,30.30,SE,128,5.0,16.0,26,0.00,,,0.00,meteohub,2013-03-06 02:57:00,
2013-03-05 20:02:00,34.0,1.0,30.30,South,183,3.0,16.0,24,0.00,,,0.00,meteohub,2013-03-06 03:02:00,
2013-03-05 20:07:00,34.5,-0.4,30.30,WSW,245,5.0,14.0,22,0.00,,,0.00,meteohub,2013-03-06 03:07:00,
2013-03-05 20:12:00,34.7,-0.2,30.30,South,181,3.0,14.0,22,0.00,,,0.00,meteohub,2013-03-06 03:12:00,
2013-03-05 20:17:00,34.9,-1.1,30.30,SSW,210,9.0,12.0,21,0.00,,,0.00,meteohub,2013-03-06 03:17:00,
2013-03-05 20:22:00,34.9,-2.2,30.30,WSW,238,3.0,13.0,20,0.00,,,0.00,meteohub,2013-03-06 03:22:00,
2013-03-05 20:27:00,34.5,-2.4,30.30,South,176,3.0,13.0,20,0.00,,,0.00,meteohub,2013-03-06 03:27:00,
2013-03-05 20:32:00,34.3,-1.5,30.30,SSW,203,4.0,13.0,21,0.00,,,0.00,meteohub,2013-03-06 03:32:00,
2013-03-05 20:37:00,34.3,-1.5,30.30,South,190,5.0,11.0,21,0.00,,,0.00,meteohub,2013-03-06 03:37:00,
2013-03-05 20:42:00,34.5,-1.5,30.30,WSW,257,4.0,11.0,21,0.00,,,0.00,meteohub,2013-03-06 03:42:00,
2013-03-05 20:47:00,34.3,-0.6,30.30,ESE,112,1.0,12.0,22,0.00,,,0.00,meteohub,2013-03-06 03:47:00,
2013-03-05 20:52:00,34.3,-0.6,30.30,SSE,166,2.0,12.0,22,0.00,,,0.00,meteohub,2013-03-06 03:52:00,
2013-03-05 20:57:00,34.5,0.5,30.30,WSW,238,2.0,11.0,23,0.00,,,0.00,meteohub,2013-03-06 03:57:00,
2013-03-05 21:02:00,34.9,0.9,30.30,SSE,158,2.0,12.0,23,0.00,,,0.00,meteohub,2013-03-06 04:02:00,
2013-03-05 21:07:00,34.9,0.9,30.30,SSE,158,0.0,12.0,23,0.00,,,0.00,meteohub,2013-03-06 04:07:00,
2013-03-05 21:12:00,34.9,0.9,30.30,ENE,77,2.0,12.0,23,0.00,,,0.00,meteohub,2013-03-06 04:12:00,
2013-03-05 21:17:00,34.9,0.9,30.30,SE,135,1.0,7.0,23,0.00,,,0.00,meteohub,2013-03-06 04:17:00,
2013-03-05 21:22:00,34.3,1.2,30.30,South,175,0.0,6.0,24,0.00,,,0.00,meteohub,2013-03-06 04:22:00,
2013-03-05 21:27:00,34.3,1.2,30.30,SSW,194,2.0,5.0,24,0.00,,,0.00,meteohub,2013-03-06 04:27:00,
2013-03-05 21:32:00,34.9,1.8,30.30,SSE,156,8.0,10.0,24,0.00,,,0.00,meteohub,2013-03-06 04:32:00,
2013-03-05 21:37:00,34.2,1.0,30.30,SW,219,3.0,13.0,24,0.00,,,0.00,meteohub,2013-03-06 04:37:00,
2013-03-05 21:42:00,32.2,1.2,30.30,West,270,4.0,13.0,26,0.00,,,0.00,meteohub,2013-03-06 04:42:00,
2013-03-05 21:47:00,31.8,1.6,30.30,WSW,257,3.0,13.0,27,0.00,,,0.00,meteohub,2013-03-06 04:47:00,
2013-03-05 21:52:00,31.8,0.9,30.30,SSE,155,2.0,6.0,26,0.00,,,0.00,meteohub,2013-03-06 04:52:00,
2013-03-05 21:57:00,32.2,1.2,30.31,WSW,257,1.0,5.0,26,0.00,,,0.00,meteohub,2013-03-06 04:57:00,
2013-03-05 22:01:00,32.7,1.6,30.30,SW,219,1.0,5.0,26,0.00,,,0.00,meteohub,2013-03-06 05:01:00,
2013-03-05 22:02:00,32.7,1.6,30.30,West,262,3.0,5.0,26,0.00,,,0.00,meteohub,2013-03-06 05:02:00,
2013-03-05 22:03:00,32.7,0.7,30.30,WNW,290,2.0,5.0,25,0.00,,,0.00,meteohub,2013-03-06 05:03:00,
2013-03-05 22:04:00,32.7,0.7,30.30,WNW,291,0.0,5.0,25,0.00,,,0.00,meteohub,2013-03-06 05:04:00,
2013-03-05 22:09:00,32.4,1.2,30.30,NW,311,0.0,5.0,26,0.00,,,0.00,meteohub,2013-03-06 05:09:00,
2013-03-05 22:15:00,31.8,1.6,30.30,NW,319,2.0,3.0,27,0.00,,,0.00,meteohub,2013-03-06 05:15:00,
2013-03-05 22:20:00,31.5,2.8,30.30,NW,322,2.0,3.0,29,0.00,,,0.00,meteohub,2013-03-06 05:20:00,
2013-03-05 22:26:00,31.1,2.5,30.30,NW,322,3.0,3.0,29,0.00,,,0.00,meteohub,2013-03-06 05:26:00,
2013-03-05 22:31:00,30.9,2.3,30.29,NNW,327,2.0,3.0,29,0.00,,,0.00,meteohub,2013-03-06 05:31:00,
2013-03-05 22:37:00,30.6,2.8,30.29,WNW,300,1.0,3.0,30,0.00,,,0.00,meteohub,2013-03-06 05:37:00,
2013-03-05 22:42:00,30.6,2.8,30.29,NW,318,0.0,4.0,30,0.00,,,0.00,meteohub,2013-03-06 05:42:00,
2013-03-05 22:47:00,30.0,2.3,30.29,WNW,297,2.0,6.0,30,0.00,,,0.00,meteohub,2013-03-06 05:47:00,
2013-03-05 22:52:00,30.0,3.0,30.29,NW,315,2.0,6.0,31,0.00,,,0.00,meteohub,2013-03-06 05:52:00,
2013-03-05 22:57:00,29.8,2.8,30.29,NW,323,1.0,6.0,31,0.00,,,0.00,meteohub,2013-03-06 05:57:00,
2013-03-05 23:02:00,29.8,2.8,30.29,NNW,333,5.0,5.0,31,0.00,,,0.00,meteohub,2013-03-06 06:02:00,
2013-03-05 23:07:00,30.0,3.0,30.29,NNW,330,4.0,5.0,31,0.00,,,0.00,meteohub,2013-03-06 06:07:00,
2013-03-05 23:12:00,30.6,2.1,30.29,NW,322,3.0,5.0,29,0.00,,,0.00,meteohub,2013-03-06 06:12:00,
2013-03-05 23:17:00,30.6,2.1,30.29,NW,325,4.0,5.0,29,0.00,,,0.00,meteohub,2013-03-06 06:17:00,
2013-03-05 23:22:00,30.9,1.6,30.29,NNW,328,1.0,4.0,28,0.00,,,0.00,meteohub,2013-03-06 06:22:00,
2013-03-05 23:27:00,30.7,1.4,30.28,NNW,335,2.0,4.0,28,0.00,,,0.00,meteohub,2013-03-06 06:27:00,
2013-03-05 23:32:00,30.4,1.9,30.29,NNW,333,2.0,4.0,29,0.00,,,0.00,meteohub,2013-03-06 06:32:00,
2013-03-05 23:37:00,29.8,2.1,30.29,NW,316,1.0,3.0,30,0.00,,,0.00,meteohub,2013-03-06 06:37:00,
2013-03-05 23:42:00,29.3,1.8,30.28,NW,304,2.0,3.0,30,0.00,,,0.00,meteohub,2013-03-06 06:42:00,
2013-03-05 23:47:00,29.3,2.5,30.29,NW,316,1.0,3.0,31,0.00,,,0.00,meteohub,2013-03-06 06:47:00,
2013-03-05 23:52:00,29.3,2.5,30.28,NW,314,1.0,3.0,31,0.00,,,0.00,meteohub,2013-03-06 06:52:00,
2013-03-05 23:57:00,29.5,3.2,30.28,NW,315,2.0,3.0,32,0.00,,,0.00,meteohub,2013-03-06 06:57:00,